Regional Weather Roundup
Issued by NWS

Home | Current Version | Previous Version | Text Only | Print | Product List | Glossary Off
Versions: 1 2 3 4 5 6 7 8 9 10 11 12 13 14 15 16 17 18 19 20 21 22 23 24 25 26 27 28 29 30 31 32 33 34 35 36 37 38 39 40 41 42 43 44 45 46 47 48 49 50

000
ASUS45 KCYS 041110
RWRWY

WYOMING REGIONAL WEATHER ROUNDUP
NATIONAL WEATHER SERVICE CHEYENNE WY
500 AM MDT FRI SEP 04 2015

NOTE:  "FAIR" INDICATES FEW OR NO CLOUDS BELOW 12,000 FEET
WITH NO SIGNIFICANT WEATHER AND/OR OBSTRUCTIONS TO VISIBILITY.

WYZ001-041200-
YELLOWSTONE NATIONAL PARK

CITY           SKY/WX    TMP DP  RH WIND       PRES   REMARKS
LK YELLOWSTONE   N/A     40  39  97 W3        30.03F
W YELLOWSTONE  NOT AVBL

$$
WYZ002>013-054>058-071-098>099-041200-
NORTHERN WYOMING

CITY           SKY/WX    TMP DP  RH WIND       PRES   REMARKS
JACKSON        MOCLDY    48  45  87 N3        29.95S
CODY           FAIR      50  45  81 NE8       29.93R
GREYBULL       FAIR      57  46  66 NW18      29.84S
WORLAND        FAIR      53  43  68 SW7       29.86F
SHERIDAN       FAIR      58  44  60 NW15      29.90R
BUFFALO        FAIR      58  44  60 N14G28    29.93R
GILLETTE       FAIR      57  41  55 VRB3      29.87R
HULETT         FAIR      66  45  45 S6        29.86S
NEWCASTLE      FAIR      61  41  48 N10       29.86S

$$
WYZ014>020-022>026-101>103-041200-
CENTRAL WYOMING

CITY           SKY/WX    TMP DP  RH WIND       PRES   REMARKS
BIG PINEY      FAIR      41  34  76 CALM      30.03S
PINEDALE       FAIR      45  36  70 MISG      30.04R
DUBOIS         FAIR      45  34  65 NW13      30.02R
LANDER         FAIR      59  35  40 NW8       29.91R
RIVERTON       FAIR      56  39  53 NW6       29.91S
CASPER         FAIR      60  41  49 NW9       29.94R
DOUGLAS        FAIR      54  46  74 SE6       29.92R

$$
WYZ021-027>030-104>119-041200-
SOUTHERN WYOMING

CITY           SKY/WX    TMP DP  RH WIND       PRES   REMARKS
EVANSTON       FAIR      60  30  32 SW15      30.01S
KEMMERER       FAIR      48  30  49 CALM      30.03S
FORT BRIDGER   SUNNY     61  30  31 SW12      30.04S
ROCK SPRINGS   FAIR      58  36  43 SW6       30.02R
DIXON          FAIR      53  43  68 CALM      30.09R
RAWLINS        FAIR      50  41  71 NE5       30.06R
SARATOGA       FAIR      52  43  71 SE9       30.10S
LARAMIE        FAIR      44  32  62 SE5       30.10S
CHEYENNE       FAIR      56  43  61 W10       30.01S
TORRINGTON     FAIR      54  49  83 S3        29.88R
PINE BLUFFS    FAIR      43  41  93 S3        29.97S

$$


USA.gov is the U.S. government's official web portal to all federal, state and local government web resources and services.